Location: Beddau
(51.5575°N, 3.3561°W)
Time: 02:58:10
(UTC+00:00)

Resurs 01 Rocket - Pass Details

Date: 03 March 2021
Orbit: 635 x 643 km, 98.0° (Epoch: 13 April)

Event Time Altitude Azimuth Distance (km) Brightness Sun altitude
Exits shadow 20:50:14 61° 323° (NW) 726 2.0 -27.0°
Drops below altitude 10° 20:53:59 10° 343° (NNW) 2,037 4.7 -27.5°
Sets 20:56:12 0° 345° (NNW) 2,951 5.6 -27.8°
